Location: Neuvy Saint Sepulchre
(46.5953°N, 1.8122°E)
Time: 10:57:57
(UTC+02:00)

ISS - Pass Details

Date: 23 March 2024
Orbit: 413 x 419 km, 51.6° (Epoch: 13 April)

Event Time Altitude Azimuth Distance (km) Brightness Sun altitude
Rises 20:35:11 0° 290° (WNW) 2,365 2.0 -15.1°
Reaches altitude 10° 20:37:23 10° 299° (WNW) 1,502 0.4 -15.5°
Maximum altitude 20:40:32 36° 8° (N) 689 -2.6 -16.0°
Enters shadow 20:41:52 25° 55° (NE) 893 -2.4 -16.2°
